STARLINK-37688, 69372

Orbit data source: Space-Track

STARLINK-37688, 69372 is a payload satellite owned by SpaceX/Seattle (US) in LEO that was launched on Thu, 04 Jun 2026 UTC via an FALCON 9 launch vehicle from the Air Force Eastern Test Range (AFETR). Payload-class satellites include a variety of spacecraft equipped with specific instruments for various scientific and technological missions. These include communications satellites like Starlink; space stations such as the ISS; scientific satellites like the Hubble; Earth observation satellites from companies like Planet Labs, Umbra, and HawkEye 360; GPS; miniature CubeSats for education and research; and military/defense satellites.

Loading next visibility...
Identifier
69372, 2026-123V
Orbit
LEO
Country
Flag of USUS
Related business
Manufacturer
SpaceX/Seattle
Mission
Operational spacecraft
Bus & Motor
STARLINK V2MO, Unknown motor
Mass
575 kg wet, ~530 kg dry
Launch date (UTC)
2026-06-04 (2 months ago)
Launch vehicle
FALCON 9
Launch site
Air Force Eastern Test Range (AFETR)
Object type
Payload
Rocket body
Debris
Shape & HBR
BOX + PAN, 17.7 m
Radar Cross Section
Large (>1 m²)

Expand to show TLE details & history
Last TLE update: 11 hours ago

TLE from 11 hours ago
0 STARLINK-37688
1 69372U 26123V   26207.55154185  .00154040  00000-0  98896-3 0  9999
2 69372  53.1574  45.1854 0001861 336.9666  23.1271 15.75282116  8255
Epoch: 2026-07-26T13:14Z
TLE epoch observation values (Epoch: 2026-07-26T13:14:13.215Z)
Latitude
-0.00001°
Longitude
-97.61751°
Altitude
343.595 km
Speed
7.705 km/s
True Right ascension
03h 00m 44s
True Declination
0° 00' 00"
Sunlit
Object was in daylight at epoch
Visualization orbit readout
Latitude
Unknown
Longitude
Unknown
Altitude
Unknown
Speed
Unknown
Apparent Right ascension
Unknown
Apparent Declination
Unknown
Sunlit
N/A
Visualization observer readout
Local Sidereal Time
13:11:11
Azimuth
Unknown
Elevation
Unknown
Doppler factor
Unknown
Orbital elements
Apogee altitude
345.341 km
Perigee altitude
342.839 km
Semi-major axis
6,722.227 km
Eccentricity
0.00019
Inclination
53.1574°
RAAN
45.1854°
Arg. of periapsis
336.9666°
True anomaly
23.13548°
Mean anomaly
23.1271°
Eccentric anomaly
23.13129°
Mean motion
3.93798 °/min
Orbital period
91.42 mins
BSTAR
0.00098896
Loading maneuver chart data...
Computing Atmospheric mass density...
Loading historical data...
Loading historical data...
Loading historical data...
Loading historical data...
Loading historical data...
Loading historical data...
Loading historical data...

Documentation

Showing up to 5 results
|